Flag for Brazil Weather past 2 weeks in Maceió, Alagoas, Brazil

Now
70 °F

Passing clouds.


Feels Like: 70 °F
Forecast: 74 / 83 °F
Wind: 3 mph from East

Location: Maceio Aeroporto

Current Time: Sep 22, 2014 at 9:41:02 PM

Latest Report: Sep 22, 2014 at 9:00 PM


Visibility: N/A

Pressure: 30.01 "Hg

Humidity: 94%

Dew point: 68 °F

Location of MaceióLocation

Historic Weather in Maceió — Graph

°F

Maceió temperature yesterday

Maximum temperature yesterday: 82 °F (at 11:00 AM)
Minimum temperature yesterday: 66 °F (at 5:00 AM)
Average temperature yesterday: 74 °F

Past Weeks' High & Low Weather Summary

 TemperatureHumidityPressure
High82 °F (Sep 12, 11:00 AM)100% (Sep 8, 12:00 AM)30.12 "Hg (Sep 8, 12:00 AM)
Low63 °F (Sep 17, 1:00 AM)51% (Sep 13, 12:00 PM)29.89 "Hg (Sep 22, 2:00 PM)
Average72 °F85%30.03 "Hg
* Reported Sep 7 8:00 PM — Sep 22 8:00 PM, Maceió, Weather by CustomWeather, © 2014

Note: Actual official high and low records may vary slightly from our data, if they occured in-between our weather recording intervals... More about our weather records

Advertising

Maceió weather history for previous 24 hours

 ConditionsComfort  
Time TempWeatherWind HumidityBarometerVisibility
8:00 PM
Sep 22
70 °FPassing clouds.5 mph94%29.98 "HgN/A
7:00 PM72 °FClear.7 mph94%29.95 "Hg10 mi
6:00 PM73 °FClear.8 mph89%29.95 "Hg10 mi
5:00 PM77 °FPassing clouds.10 mph79%29.92 "HgN/A
4:00 PM79 °FScattered clouds.13 mph74%29.89 "HgN/A
3:00 PM81 °FScattered clouds.15 mph70%29.89 "HgN/A
2:00 PM82 °FScattered clouds.13 mph66%29.89 "HgN/A
1:00 PM82 °FScattered clouds.16 mph66%29.92 "HgN/A
12:00 PM82 °FScattered clouds.13 mph66%29.95 "HgN/A
11:00 AM82 °FScattered clouds.9 mph62%29.98 "HgN/A
10:00 AM81 °FScattered clouds.12 mph66%30.01 "HgN/A
9:00 AM79 °FScattered clouds.13 mph74%30.01 "HgN/A
8:00 AM75 °FScattered clouds.10 mph83%30.01 "HgN/A
7:00 AM72 °FPassing clouds.5 mph94%30.01 "HgN/A
6:00 AM68 °FPassing clouds.5 mph100%29.98 "HgN/A
5:00 AM66 °FPassing clouds.3 mph100%29.98 "HgN/A
4:00 AM66 °FPassing clouds.3 mph100%29.98 "HgN/A
3:00 AM68 °FPassing clouds.3 mph94%29.98 "HgN/A
2:00 AM68 °FPassing clouds.3 mph94%29.98 "HgN/A
1:00 AM68 °FPassing clouds.3 mph94%29.98 "HgN/A
12:00 AM66 °FPassing clouds.5 mph100%29.98 "HgN/A
11:00 PM
Sep 21
68 °FPassing clouds.3 mph100%30.01 "HgN/A
10:00 PM68 °FPassing clouds.5 mph100%30.01 "HgN/A
9:00 PM68 °FClear.5 mph94%30.01 "Hg10 mi
Weather by CustomWeather, © 2014

See weather overviewHow to use our weather pages